Year,Month,Day,Hour,Minute,Value (Times are PST for temperature in C)
2007,08,15,00,00,14.70
2007,08,15,00,01,14.60
2007,08,15,00,02,14.60
2007,08,15,00,03,14.60
2007,08,15,00,04,14.50
2007,08,15,00,05,14.50
2007,08,15,00,06,14.50
2007,08,15,00,07,14.40
2007,08,15,00,08,14.40
2007,08,15,00,09,14.40
2007,08,15,00,10,14.40
2007,08,15,00,11,14.40
2007,08,15,00,12,14.40
2007,08,15,00,13,14.40
2007,08,15,00,14,14.30
2007,08,15,00,15,14.30
2007,08,15,00,16,14.30
2007,08,15,00,17,14.30
2007,08,15,00,18,14.30
2007,08,15,00,19,14.30
2007,08,15,00,20,14.30
2007,08,15,00,21,14.30
2007,08,15,00,22,14.30
2007,08,15,00,23,14.30
2007,08,15,00,24,14.20
2007,08,15,00,25,14.20
2007,08,15,00,26,14.20
2007,08,15,00,27,14.20
2007,08,15,00,28,14.20
2007,08,15,00,29,14.20
2007,08,15,00,30,14.20
2007,08,15,00,31,14.20
2007,08,15,00,32,14.20
2007,08,15,00,33,14.20
2007,08,15,00,34,14.10
2007,08,15,00,35,14.10
2007,08,15,00,36,14.10
2007,08,15,00,37,14.10
2007,08,15,00,38,14.10
2007,08,15,00,39,14.10
2007,08,15,00,40,14.10
2007,08,15,00,41,14.10
2007,08,15,00,42,14.10
2007,08,15,00,43,14.00
2007,08,15,00,44,14.00
2007,08,15,00,45,13.90
2007,08,15,00,46,13.90
2007,08,15,00,47,13.90
2007,08,15,00,48,13.90
2007,08,15,00,49,13.90
2007,08,15,00,50,13.90
2007,08,15,00,51,13.80
2007,08,15,00,52,13.80
2007,08,15,00,53,13.80
2007,08,15,00,54,13.80
2007,08,15,00,55,13.80
2007,08,15,00,56,13.80
2007,08,15,00,57,13.80
2007,08,15,00,58,13.80
2007,08,15,00,59,13.70
2007,08,15,01,00,13.70
2007,08,15,01,01,13.70
2007,08,15,01,02,13.70
2007,08,15,01,03,13.70
2007,08,15,01,04,13.70
2007,08,15,01,05,13.60
2007,08,15,01,06,13.60
2007,08,15,01,07,13.60
2007,08,15,01,08,13.50
2007,08,15,01,09,13.50
2007,08,15,01,10,13.50
2007,08,15,01,11,13.50
2007,08,15,01,12,13.50
2007,08,15,01,13,13.50
2007,08,15,01,14,13.40
2007,08,15,01,15,13.40
2007,08,15,01,16,13.40
2007,08,15,01,17,13.40
2007,08,15,01,18,13.40
2007,08,15,01,19,13.40
2007,08,15,01,20,13.40
2007,08,15,01,21,13.40
2007,08,15,01,22,13.40
2007,08,15,01,23,13.40
2007,08,15,01,24,13.40
2007,08,15,01,25,13.40
2007,08,15,01,26,13.40
2007,08,15,01,27,13.30
2007,08,15,01,28,13.30
2007,08,15,01,29,13.30
2007,08,15,01,30,13.30
2007,08,15,01,31,13.20
2007,08,15,01,32,13.20
2007,08,15,01,33,13.10
2007,08,15,01,34,13.10
2007,08,15,01,35,13.10
2007,08,15,01,36,13.10
2007,08,15,01,37,13.00
2007,08,15,01,38,13.00
2007,08,15,01,39,13.00
2007,08,15,01,40,13.00
2007,08,15,01,41,13.00
2007,08,15,01,42,12.90
2007,08,15,01,43,12.90
2007,08,15,01,44,12.90
2007,08,15,01,45,12.90
2007,08,15,01,46,12.90
2007,08,15,01,47,12.90
2007,08,15,01,48,12.90
2007,08,15,01,49,12.90
2007,08,15,01,50,12.90
2007,08,15,01,51,12.90
2007,08,15,01,52,12.90
2007,08,15,01,53,12.90
2007,08,15,01,54,12.90
2007,08,15,01,55,12.90
2007,08,15,01,56,12.90
2007,08,15,01,57,12.90
2007,08,15,01,58,12.90
2007,08,15,01,59,12.90
2007,08,15,02,00,12.80
2007,08,15,02,01,12.80
2007,08,15,02,02,12.80
2007,08,15,02,03,12.80
2007,08,15,02,04,12.80
2007,08,15,02,05,12.80
2007,08,15,02,06,12.80
2007,08,15,02,07,12.80
2007,08,15,02,08,12.80
2007,08,15,02,09,12.70
2007,08,15,02,10,12.70
2007,08,15,02,11,12.70
2007,08,15,02,12,12.70
2007,08,15,02,13,12.70
2007,08,15,02,14,12.70
2007,08,15,02,15,12.70
2007,08,15,02,16,12.60
2007,08,15,02,17,12.60
2007,08,15,02,18,12.60
2007,08,15,02,19,12.60
2007,08,15,02,20,12.60
2007,08,15,02,21,12.60
2007,08,15,02,22,12.60
2007,08,15,02,23,12.60
2007,08,15,02,24,12.60
2007,08,15,02,25,12.60
2007,08,15,02,26,12.60
2007,08,15,02,27,12.60
2007,08,15,02,28,12.60
2007,08,15,02,29,12.60
2007,08,15,02,30,12.60
2007,08,15,02,31,12.60
2007,08,15,02,32,12.60
2007,08,15,02,33,12.60
2007,08,15,02,34,12.60
2007,08,15,02,35,12.60
2007,08,15,02,36,12.50
2007,08,15,02,37,12.50
2007,08,15,02,38,12.50
2007,08,15,02,39,12.50
2007,08,15,02,40,12.50
2007,08,15,02,41,12.50
2007,08,15,02,42,12.40
2007,08,15,02,43,12.40
2007,08,15,02,44,12.40
2007,08,15,02,45,12.40
2007,08,15,02,46,12.40
2007,08,15,02,47,12.40
2007,08,15,02,48,12.40
2007,08,15,02,49,12.40
2007,08,15,02,50,12.30
2007,08,15,02,51,12.30
2007,08,15,02,52,12.30
2007,08,15,02,53,12.30
2007,08,15,02,54,12.30
2007,08,15,02,55,12.30
2007,08,15,02,56,12.30
2007,08,15,02,57,12.30
2007,08,15,02,58,12.30
2007,08,15,02,59,12.30
2007,08,15,03,00,12.30
2007,08,15,03,01,12.30
2007,08,15,03,02,12.30
2007,08,15,03,03,12.30
2007,08,15,03,04,12.20
2007,08,15,03,05,12.20
2007,08,15,03,06,12.20
2007,08,15,03,07,12.10
2007,08,15,03,08,12.10
2007,08,15,03,09,12.10
2007,08,15,03,10,12.10
2007,08,15,03,11,12.00
2007,08,15,03,12,12.00
2007,08,15,03,13,12.00
2007,08,15,03,14,11.90
2007,08,15,03,15,11.90
2007,08,15,03,16,11.90
2007,08,15,03,17,11.90
2007,08,15,03,18,11.90
2007,08,15,03,19,11.80
2007,08,15,03,20,11.80
2007,08,15,03,21,11.80
2007,08,15,03,22,11.80
2007,08,15,03,23,11.80
2007,08,15,03,24,11.80
2007,08,15,03,25,11.70
2007,08,15,03,26,11.70
2007,08,15,03,27,11.70
2007,08,15,03,28,11.70
2007,08,15,03,29,11.70
2007,08,15,03,30,11.70
2007,08,15,03,31,11.70
2007,08,15,03,32,11.80
2007,08,15,03,33,11.70
2007,08,15,03,34,11.70
2007,08,15,03,35,11.80
2007,08,15,03,36,11.80
2007,08,15,03,37,11.80
2007,08,15,03,38,11.80
2007,08,15,03,39,11.80
2007,08,15,03,40,11.80
2007,08,15,03,41,11.80
2007,08,15,03,42,11.80
2007,08,15,03,43,11.80
2007,08,15,03,44,11.80
2007,08,15,03,45,11.80
2007,08,15,03,46,11.80
2007,08,15,03,47,11.80
2007,08,15,03,48,11.80
2007,08,15,03,49,11.80
2007,08,15,03,50,11.70
2007,08,15,03,51,11.70
2007,08,15,03,52,11.70
2007,08,15,03,53,11.70
2007,08,15,03,54,11.70
2007,08,15,03,55,11.60
2007,08,15,03,56,11.60
2007,08,15,03,57,11.60
2007,08,15,03,58,11.60
2007,08,15,03,59,11.60
2007,08,15,04,00,11.60
2007,08,15,04,01,11.60
2007,08,15,04,02,11.60
2007,08,15,04,03,11.60
2007,08,15,04,04,11.60
2007,08,15,04,05,11.60
2007,08,15,04,06,11.60
2007,08,15,04,07,11.60
2007,08,15,04,08,11.60
2007,08,15,04,09,11.60
2007,08,15,04,10,11.50
2007,08,15,04,11,11.50
2007,08,15,04,12,11.50
2007,08,15,04,13,11.50
2007,08,15,04,14,11.50
2007,08,15,04,15,11.50
2007,08,15,04,16,11.50
2007,08,15,04,17,11.50
2007,08,15,04,18,11.50
2007,08,15,04,19,11.50
2007,08,15,04,20,11.50
2007,08,15,04,21,11.50
2007,08,15,04,22,11.40
2007,08,15,04,23,11.40
2007,08,15,04,24,11.40
2007,08,15,04,25,11.40
2007,08,15,04,26,11.40
2007,08,15,04,27,11.40
2007,08,15,04,28,11.40
2007,08,15,04,29,11.30
2007,08,15,04,30,11.30
2007,08,15,04,31,11.30
2007,08,15,04,32,11.30
2007,08,15,04,33,11.30
2007,08,15,04,34,11.30
2007,08,15,04,35,11.20
2007,08,15,04,36,11.20
2007,08,15,04,37,11.20
2007,08,15,04,38,11.20
2007,08,15,04,39,11.10
2007,08,15,04,40,11.10
2007,08,15,04,41,11.10
2007,08,15,04,42,11.10
2007,08,15,04,43,11.10
2007,08,15,04,44,11.10
2007,08,15,04,45,11.10
2007,08,15,04,46,11.10
2007,08,15,04,47,11.10
2007,08,15,04,48,11.10
2007,08,15,04,49,11.10
2007,08,15,04,50,11.10
2007,08,15,04,51,11.10
2007,08,15,04,52,11.10
2007,08,15,04,53,11.10
2007,08,15,04,54,11.10
2007,08,15,04,55,11.10
2007,08,15,04,56,11.20
2007,08,15,04,57,11.20
2007,08,15,04,58,11.20
2007,08,15,04,59,11.20
2007,08,15,05,00,11.20
2007,08,15,05,01,11.20
2007,08,15,05,02,11.20
2007,08,15,05,03,11.20
2007,08,15,05,04,11.20
2007,08,15,05,05,11.20
2007,08,15,05,06,11.20
2007,08,15,05,07,11.20
2007,08,15,05,08,11.10
2007,08,15,05,09,11.10
2007,08,15,05,10,11.10
2007,08,15,05,11,11.00
2007,08,15,05,12,11.00
2007,08,15,05,13,11.00
2007,08,15,05,14,11.00
2007,08,15,05,15,11.00
2007,08,15,05,16,11.00
2007,08,15,05,17,11.00
2007,08,15,05,18,11.00
2007,08,15,05,19,11.00
2007,08,15,05,20,11.00
2007,08,15,05,21,11.00
2007,08,15,05,22,11.10
2007,08,15,05,23,11.10
2007,08,15,05,24,11.10
2007,08,15,05,25,11.10
2007,08,15,05,26,11.10
2007,08,15,05,27,11.10
2007,08,15,05,28,11.10
2007,08,15,05,29,11.10
2007,08,15,05,30,11.10
2007,08,15,05,31,11.00
2007,08,15,05,32,11.00
2007,08,15,05,33,11.00
2007,08,15,05,34,11.00
2007,08,15,05,35,10.90
2007,08,15,05,36,10.90
2007,08,15,05,37,10.90
2007,08,15,05,38,10.90
2007,08,15,05,39,10.90
2007,08,15,05,40,10.90
2007,08,15,05,41,10.90
2007,08,15,05,42,10.90
2007,08,15,05,43,10.90
2007,08,15,05,44,10.90
2007,08,15,05,45,10.90
2007,08,15,05,46,10.90
2007,08,15,05,47,10.90
2007,08,15,05,48,10.90
2007,08,15,05,49,10.90
2007,08,15,05,50,10.90
2007,08,15,05,51,10.90
2007,08,15,05,52,10.90
2007,08,15,05,53,10.90
2007,08,15,05,54,10.90
2007,08,15,05,55,10.90
2007,08,15,05,56,10.90
2007,08,15,05,57,10.90
2007,08,15,05,58,10.90
2007,08,15,05,59,10.80
2007,08,15,06,00,10.80
2007,08,15,06,01,10.80
2007,08,15,06,02,10.80
2007,08,15,06,03,10.80
2007,08,15,06,04,10.80
2007,08,15,06,05,10.80
2007,08,15,06,06,10.80
2007,08,15,06,07,10.80
2007,08,15,06,08,10.80
2007,08,15,06,09,10.80
2007,08,15,06,10,10.80
2007,08,15,06,11,10.80
2007,08,15,06,12,10.80
2007,08,15,06,13,10.70
2007,08,15,06,14,10.70
2007,08,15,06,15,10.70
2007,08,15,06,16,10.70
2007,08,15,06,17,10.70
2007,08,15,06,18,10.70
2007,08,15,06,19,10.70
2007,08,15,06,20,10.70
2007,08,15,06,21,10.70
2007,08,15,06,22,10.70
2007,08,15,06,23,10.70
2007,08,15,06,24,10.70
2007,08,15,06,25,10.70
2007,08,15,06,26,10.70
2007,08,15,06,27,10.70
2007,08,15,06,28,10.70
2007,08,15,06,29,10.70
2007,08,15,06,30,10.70
2007,08,15,06,31,10.70
2007,08,15,06,32,10.60
2007,08,15,06,33,10.60
2007,08,15,06,34,10.60
2007,08,15,06,35,10.60
2007,08,15,06,36,10.70
2007,08,15,06,37,10.70
2007,08,15,06,38,10.70
2007,08,15,06,39,10.70
2007,08,15,06,40,10.70
2007,08,15,06,41,10.70
2007,08,15,06,42,10.80
2007,08,15,06,43,10.80
2007,08,15,06,44,10.80
2007,08,15,06,45,10.80
2007,08,15,06,46,10.80
2007,08,15,06,47,10.80
2007,08,15,06,48,10.80
2007,08,15,06,49,10.90
2007,08,15,06,50,10.90
2007,08,15,06,51,10.90
2007,08,15,06,52,11.00
2007,08,15,06,53,11.10
2007,08,15,06,54,11.10
2007,08,15,06,55,11.10
2007,08,15,06,56,11.20
2007,08,15,06,57,11.20
2007,08,15,06,58,11.20
2007,08,15,06,59,11.20
2007,08,15,07,00,11.30
2007,08,15,07,01,11.30
2007,08,15,07,02,11.40
2007,08,15,07,03,11.40
2007,08,15,07,04,11.50
2007,08,15,07,05,11.60
2007,08,15,07,06,11.60
2007,08,15,07,07,11.70
2007,08,15,07,08,11.70
2007,08,15,07,09,11.80
2007,08,15,07,10,11.80
2007,08,15,07,11,11.90
2007,08,15,07,12,11.90
2007,08,15,07,13,12.00
2007,08,15,07,14,12.10
2007,08,15,07,15,12.10
2007,08,15,07,16,12.20
2007,08,15,07,17,12.40
2007,08,15,07,18,12.50
2007,08,15,07,19,12.60
2007,08,15,07,20,12.80
2007,08,15,07,21,12.90
2007,08,15,07,22,13.00
2007,08,15,07,23,13.10
2007,08,15,07,24,13.30
2007,08,15,07,25,13.40
2007,08,15,07,26,13.50
2007,08,15,07,27,13.70
2007,08,15,07,28,13.80
2007,08,15,07,29,13.90
2007,08,15,07,30,14.00
2007,08,15,07,31,14.10
2007,08,15,07,32,14.20
2007,08,15,07,33,14.30
2007,08,15,07,34,14.50
2007,08,15,07,35,14.60
2007,08,15,07,36,14.70
2007,08,15,07,37,14.80
2007,08,15,07,38,14.90
2007,08,15,07,39,15.00
2007,08,15,07,40,15.00
2007,08,15,07,41,15.00
2007,08,15,07,42,15.00
2007,08,15,07,43,15.00
2007,08,15,07,44,15.00
2007,08,15,07,45,15.00
2007,08,15,07,46,15.00
2007,08,15,07,47,15.20
2007,08,15,07,48,15.30
2007,08,15,07,49,15.40
2007,08,15,07,50,15.50
2007,08,15,07,51,15.60
2007,08,15,07,52,15.70
2007,08,15,07,53,15.80
2007,08,15,07,54,15.90
2007,08,15,07,55,16.00
2007,08,15,07,56,16.10
2007,08,15,07,57,16.20
2007,08,15,07,58,16.20
2007,08,15,07,59,16.30
2007,08,15,08,00,16.30
2007,08,15,08,01,16.40
2007,08,15,08,02,16.50
2007,08,15,08,03,16.70
2007,08,15,08,04,16.80
2007,08,15,08,05,17.00
2007,08,15,08,06,17.10
2007,08,15,08,07,17.30
2007,08,15,08,08,17.40
2007,08,15,08,09,17.40
2007,08,15,08,10,17.60
2007,08,15,08,11,17.70
2007,08,15,08,12,17.80
2007,08,15,08,13,18.00
2007,08,15,08,14,18.10
2007,08,15,08,15,18.20
2007,08,15,08,16,18.20
2007,08,15,08,17,18.40
2007,08,15,08,18,18.50
2007,08,15,08,19,18.60
2007,08,15,08,20,18.70
2007,08,15,08,21,18.80
2007,08,15,08,22,18.90
2007,08,15,08,23,19.00
2007,08,15,08,24,19.10
2007,08,15,08,25,19.20
2007,08,15,08,26,19.30
2007,08,15,08,27,19.40
2007,08,15,08,28,19.50
2007,08,15,08,29,19.50
2007,08,15,08,30,19.60
2007,08,15,08,31,19.60
2007,08,15,08,32,19.60
2007,08,15,08,33,19.60
2007,08,15,08,34,19.60
2007,08,15,08,35,19.70
2007,08,15,08,36,19.70
2007,08,15,08,37,19.70
2007,08,15,08,38,19.80
2007,08,15,08,39,19.80
2007,08,15,08,40,19.80
2007,08,15,08,41,19.90
2007,08,15,08,42,20.00
2007,08,15,08,43,20.10
2007,08,15,08,44,20.10
2007,08,15,08,45,20.20
2007,08,15,08,46,20.30
2007,08,15,08,47,20.30
2007,08,15,08,48,20.40
2007,08,15,08,49,20.50
2007,08,15,08,50,20.60
2007,08,15,08,51,20.70
2007,08,15,08,52,20.80
2007,08,15,08,53,20.90
2007,08,15,08,54,21.10
2007,08,15,08,55,21.20
2007,08,15,08,56,21.40
2007,08,15,08,57,21.50
2007,08,15,08,58,21.70
2007,08,15,08,59,21.70
2007,08,15,09,00,21.70
2007,08,15,09,01,21.80
2007,08,15,09,02,21.80
2007,08,15,09,03,21.80
2007,08,15,09,04,21.80
2007,08,15,09,05,21.90
2007,08,15,09,06,21.90
2007,08,15,09,07,21.90
2007,08,15,09,08,22.00
2007,08,15,09,09,22.00
2007,08,15,09,10,22.10
2007,08,15,09,11,22.20
2007,08,15,09,12,22.30
2007,08,15,09,13,22.30
2007,08,15,09,14,22.40
2007,08,15,09,15,22.50
2007,08,15,09,16,22.60
2007,08,15,09,17,22.70
2007,08,15,09,18,22.70
2007,08,15,09,19,22.70
2007,08,15,09,20,22.70
2007,08,15,09,21,22.70
2007,08,15,09,22,22.70
2007,08,15,09,23,22.70
2007,08,15,09,24,22.70
2007,08,15,09,25,22.70
2007,08,15,09,26,22.70
2007,08,15,09,27,22.70
2007,08,15,09,28,22.70
2007,08,15,09,29,22.70
2007,08,15,09,30,22.70
2007,08,15,09,31,22.70
2007,08,15,09,32,22.70
2007,08,15,09,33,22.70
2007,08,15,09,34,22.70
2007,08,15,09,35,22.70
2007,08,15,09,36,22.80
2007,08,15,09,37,22.80
2007,08,15,09,38,22.80
2007,08,15,09,39,22.80
2007,08,15,09,40,22.90
2007,08,15,09,41,22.90
2007,08,15,09,42,22.90
2007,08,15,09,43,22.90
2007,08,15,09,44,22.90
2007,08,15,09,45,22.90
2007,08,15,09,46,22.90
2007,08,15,09,47,22.80
2007,08,15,09,48,22.80
2007,08,15,09,49,22.80
2007,08,15,09,50,22.70
2007,08,15,09,51,22.70
2007,08,15,09,52,22.70
2007,08,15,09,53,22.70
2007,08,15,09,54,22.70
2007,08,15,09,55,22.70
2007,08,15,09,56,22.70
2007,08,15,09,57,22.70
2007,08,15,09,58,22.80
2007,08,15,09,59,22.80
2007,08,15,10,00,22.80
2007,08,15,10,01,22.90
2007,08,15,10,02,22.90
2007,08,15,10,03,23.00
2007,08,15,10,04,23.00
2007,08,15,10,05,23.10
2007,08,15,10,06,23.20
2007,08,15,10,07,23.30
2007,08,15,10,08,23.30
2007,08,15,10,09,23.30
2007,08,15,10,10,23.30
2007,08,15,10,11,23.30
2007,08,15,10,12,23.30
2007,08,15,10,13,23.30
2007,08,15,10,14,23.30
2007,08,15,10,15,23.40
2007,08,15,10,16,23.40
2007,08,15,10,17,23.30
2007,08,15,10,18,23.30
2007,08,15,10,19,23.30
2007,08,15,10,20,23.20
2007,08,15,10,21,23.10
2007,08,15,10,22,23.10
2007,08,15,10,23,23.00
2007,08,15,10,24,22.80
2007,08,15,10,25,22.70
2007,08,15,10,26,22.60
2007,08,15,10,27,22.60
2007,08,15,10,28,22.50
2007,08,15,10,29,22.40
2007,08,15,10,30,22.40
2007,08,15,10,31,22.30
2007,08,15,10,32,22.30
2007,08,15,10,33,22.30
2007,08,15,10,34,22.30
2007,08,15,10,35,22.30
2007,08,15,10,36,22.20
2007,08,15,10,37,22.20
2007,08,15,10,38,22.20
2007,08,15,10,39,22.20
2007,08,15,10,40,22.20
2007,08,15,10,41,22.20
2007,08,15,10,42,22.30
2007,08,15,10,43,22.40
2007,08,15,10,44,22.50
2007,08,15,10,45,22.60
2007,08,15,10,46,22.70
2007,08,15,10,47,22.80
2007,08,15,10,48,22.80
2007,08,15,10,49,22.80
2007,08,15,10,50,22.90
2007,08,15,10,51,22.90
2007,08,15,10,52,22.90
2007,08,15,10,53,22.90
2007,08,15,10,54,22.90
2007,08,15,10,55,22.90
2007,08,15,10,56,22.90
2007,08,15,10,57,23.00
2007,08,15,10,58,22.90
2007,08,15,10,59,22.90
2007,08,15,11,00,23.00
2007,08,15,11,01,23.10
2007,08,15,11,02,23.00
2007,08,15,11,03,23.00
2007,08,15,11,04,23.10
2007,08,15,11,05,23.00
2007,08,15,11,06,23.00
2007,08,15,11,07,23.00
2007,08,15,11,08,23.00
2007,08,15,11,09,23.00
2007,08,15,11,10,23.10
2007,08,15,11,11,23.10
2007,08,15,11,12,23.20
2007,08,15,11,13,23.30
2007,08,15,11,14,23.40
2007,08,15,11,15,23.40
2007,08,15,11,16,23.50
2007,08,15,11,17,23.50
2007,08,15,11,18,23.60
2007,08,15,11,19,23.70
2007,08,15,11,20,23.70
2007,08,15,11,21,23.70
2007,08,15,11,22,23.70
2007,08,15,11,23,23.80
2007,08,15,11,24,23.90
2007,08,15,11,25,24.00
2007,08,15,11,26,24.10
2007,08,15,11,27,24.10
2007,08,15,11,28,24.00
2007,08,15,11,29,24.00
2007,08,15,11,30,24.00
2007,08,15,11,31,23.90
2007,08,15,11,32,23.80
2007,08,15,11,33,23.80
2007,08,15,11,34,23.80
2007,08,15,11,35,23.90
2007,08,15,11,36,23.80
2007,08,15,11,37,23.80
2007,08,15,11,38,23.70
2007,08,15,11,39,23.70
2007,08,15,11,40,23.70
2007,08,15,11,41,23.60
2007,08,15,11,42,23.60
2007,08,15,11,43,23.50
2007,08,15,11,44,23.50
2007,08,15,11,45,23.40
2007,08,15,11,46,23.40
2007,08,15,11,47,23.30
2007,08,15,11,48,23.30
2007,08,15,11,49,23.30
2007,08,15,11,50,23.30
2007,08,15,11,51,23.20
2007,08,15,11,52,23.30
2007,08,15,11,53,23.30
2007,08,15,11,54,23.40
2007,08,15,11,55,23.40
2007,08,15,11,56,23.50
2007,08,15,11,57,23.60
2007,08,15,11,58,23.60
2007,08,15,11,59,23.70
2007,08,15,12,00,23.80
2007,08,15,12,01,23.80
2007,08,15,12,02,23.80
2007,08,15,12,03,23.80
2007,08,15,12,04,23.80
2007,08,15,12,05,23.80
2007,08,15,12,06,23.70
2007,08,15,12,07,23.70
2007,08,15,12,08,23.70
2007,08,15,12,09,23.70
2007,08,15,12,10,23.60
2007,08,15,12,11,23.60
2007,08,15,12,12,23.60
2007,08,15,12,13,23.70
2007,08,15,12,14,23.70
2007,08,15,12,15,23.70
2007,08,15,12,16,23.80
2007,08,15,12,17,23.80
2007,08,15,12,18,23.90
2007,08,15,12,19,24.00
2007,08,15,12,20,24.10
2007,08,15,12,21,24.10
2007,08,15,12,22,24.20
2007,08,15,12,23,24.30
2007,08,15,12,24,24.40
2007,08,15,12,25,24.50
2007,08,15,12,26,24.40
2007,08,15,12,27,24.40
2007,08,15,12,28,24.30
2007,08,15,12,29,24.30
2007,08,15,12,30,24.30
2007,08,15,12,31,24.30
2007,08,15,12,32,24.40
2007,08,15,12,33,24.50
2007,08,15,12,34,24.60
2007,08,15,12,35,24.60
2007,08,15,12,36,24.70
2007,08,15,12,37,24.80
2007,08,15,12,38,24.80
2007,08,15,12,39,24.80
2007,08,15,12,40,24.80
2007,08,15,12,41,24.80
2007,08,15,12,42,24.80
2007,08,15,12,43,24.70
2007,08,15,12,44,24.60
2007,08,15,12,45,24.60
2007,08,15,12,46,24.60
2007,08,15,12,47,24.70
2007,08,15,12,48,24.80
2007,08,15,12,49,24.90
2007,08,15,12,50,25.00
2007,08,15,12,51,25.00
2007,08,15,12,52,25.30
2007,08,15,12,53,25.30
2007,08,15,12,54,25.40
2007,08,15,12,55,25.40
2007,08,15,12,56,25.40
2007,08,15,12,57,25.40
2007,08,15,12,58,25.40
2007,08,15,12,59,25.50
2007,08,15,13,00,25.50
2007,08,15,13,01,25.50
2007,08,15,13,02,25.40
2007,08,15,13,03,25.30
2007,08,15,13,04,25.20
2007,08,15,13,05,25.20
2007,08,15,13,06,25.20
2007,08,15,13,07,25.20
2007,08,15,13,08,25.10
2007,08,15,13,09,25.00
2007,08,15,13,10,24.90
2007,08,15,13,11,24.80
2007,08,15,13,12,24.80
2007,08,15,13,13,24.90
2007,08,15,13,14,24.90
2007,08,15,13,15,25.00
2007,08,15,13,16,25.10
2007,08,15,13,17,25.10
2007,08,15,13,18,25.10
2007,08,15,13,19,25.10
2007,08,15,13,20,25.20
2007,08,15,13,21,25.20
2007,08,15,13,22,25.30
2007,08,15,13,23,25.30
2007,08,15,13,24,25.20
2007,08,15,13,25,25.30
2007,08,15,13,26,25.30
2007,08,15,13,27,25.30
2007,08,15,13,28,25.20
2007,08,15,13,29,25.20
2007,08,15,13,30,25.20
2007,08,15,13,31,25.20
2007,08,15,13,32,25.30
2007,08,15,13,33,25.40
2007,08,15,13,34,25.40
2007,08,15,13,35,25.50
2007,08,15,13,36,25.50
2007,08,15,13,37,25.50
2007,08,15,13,38,25.60
2007,08,15,13,39,25.60
2007,08,15,13,40,25.60
2007,08,15,13,41,25.70
2007,08,15,13,42,25.70
2007,08,15,13,43,25.70
2007,08,15,13,44,25.80
2007,08,15,13,45,26.00
2007,08,15,13,46,26.20
2007,08,15,13,47,26.50
2007,08,15,13,48,26.60
2007,08,15,13,49,26.60
2007,08,15,13,50,26.30
2007,08,15,13,51,25.90
2007,08,15,13,52,25.50
2007,08,15,13,53,25.30
2007,08,15,13,54,25.00
2007,08,15,13,55,24.70
2007,08,15,13,56,24.50
2007,08,15,13,57,24.20
2007,08,15,13,58,24.20
2007,08,15,13,59,24.20
2007,08,15,14,00,24.20
2007,08,15,14,01,24.10
2007,08,15,14,02,24.00
2007,08,15,14,03,23.90
2007,08,15,14,04,24.00
2007,08,15,14,05,23.90
2007,08,15,14,06,24.00
2007,08,15,14,07,24.20
2007,08,15,14,08,24.20
2007,08,15,14,09,24.30
2007,08,15,14,10,24.40
2007,08,15,14,11,24.50
2007,08,15,14,12,24.70
2007,08,15,14,13,24.80
2007,08,15,14,14,24.90
2007,08,15,14,15,25.00
2007,08,15,14,16,25.00
2007,08,15,14,17,25.00
2007,08,15,14,18,24.90
2007,08,15,14,19,24.90
2007,08,15,14,20,25.00
2007,08,15,14,21,25.00
2007,08,15,14,22,25.00
2007,08,15,14,23,25.00
2007,08,15,14,24,24.90
2007,08,15,14,25,25.00
2007,08,15,14,26,25.00
2007,08,15,14,27,25.00
2007,08,15,14,28,25.10
2007,08,15,14,29,25.20
2007,08,15,14,30,25.30
2007,08,15,14,31,25.40
2007,08,15,14,32,25.40
2007,08,15,14,33,25.30
2007,08,15,14,34,25.30
2007,08,15,14,35,25.10
2007,08,15,14,36,24.90
2007,08,15,14,37,24.70
2007,08,15,14,38,24.60
2007,08,15,14,39,24.60
2007,08,15,14,40,24.60
2007,08,15,14,41,24.60
2007,08,15,14,42,24.60
2007,08,15,14,43,24.70
2007,08,15,14,44,24.90
2007,08,15,14,45,25.00
2007,08,15,14,46,25.20
2007,08,15,14,47,25.30
2007,08,15,14,48,25.30
2007,08,15,14,49,25.10
2007,08,15,14,50,25.10
2007,08,15,14,51,25.00
2007,08,15,14,52,25.10
2007,08,15,14,53,25.10
2007,08,15,14,54,25.00
2007,08,15,14,55,25.00
2007,08,15,14,56,25.00
2007,08,15,14,57,25.10
2007,08,15,14,58,25.30
2007,08,15,14,59,25.50
2007,08,15,15,00,25.60
2007,08,15,15,01,25.70
2007,08,15,15,02,25.70
2007,08,15,15,03,25.70
2007,08,15,15,04,25.80
2007,08,15,15,05,25.80
2007,08,15,15,06,25.80
2007,08,15,15,07,25.80
2007,08,15,15,08,25.70
2007,08,15,15,09,25.70
2007,08,15,15,10,25.70
2007,08,15,15,11,25.70
2007,08,15,15,12,25.70
2007,08,15,15,13,25.50
2007,08,15,15,14,25.30
2007,08,15,15,15,25.10
2007,08,15,15,16,25.00
2007,08,15,15,17,24.90
2007,08,15,15,18,24.80
2007,08,15,15,19,24.70
2007,08,15,15,20,24.80
2007,08,15,15,21,24.80
2007,08,15,15,22,24.90
2007,08,15,15,23,24.90
2007,08,15,15,24,24.90
2007,08,15,15,25,25.00
2007,08,15,15,26,25.10
2007,08,15,15,27,25.10
2007,08,15,15,28,25.10
2007,08,15,15,29,25.10
2007,08,15,15,30,25.10
2007,08,15,15,31,25.10
2007,08,15,15,32,25.20
2007,08,15,15,33,25.20
2007,08,15,15,34,25.30
2007,08,15,15,35,25.40
2007,08,15,15,36,25.40
2007,08,15,15,37,25.40
2007,08,15,15,38,25.40
2007,08,15,15,39,25.40
2007,08,15,15,40,25.40
2007,08,15,15,41,25.40
2007,08,15,15,42,25.40
2007,08,15,15,43,25.50
2007,08,15,15,44,25.60
2007,08,15,15,45,25.70
2007,08,15,15,46,25.70
2007,08,15,15,47,25.70
2007,08,15,15,48,25.60
2007,08,15,15,49,25.40
2007,08,15,15,50,25.30
2007,08,15,15,51,25.20
2007,08,15,15,52,25.20
2007,08,15,15,53,25.10
2007,08,15,15,54,25.10
2007,08,15,15,55,25.10
2007,08,15,15,56,25.20
2007,08,15,15,57,25.30
2007,08,15,15,58,25.20
2007,08,15,15,59,25.20
2007,08,15,16,00,25.20
2007,08,15,16,01,25.20
2007,08,15,16,02,25.20
2007,08,15,16,03,25.20
2007,08,15,16,04,25.20
2007,08,15,16,05,25.20
2007,08,15,16,06,25.30
2007,08,15,16,07,25.30
2007,08,15,16,08,25.30
2007,08,15,16,09,25.30
2007,08,15,16,10,25.30
2007,08,15,16,11,25.30
2007,08,15,16,12,25.30
2007,08,15,16,13,25.40
2007,08,15,16,14,25.40
2007,08,15,16,15,25.40
2007,08,15,16,16,25.40
2007,08,15,16,17,25.40
2007,08,15,16,18,25.40
2007,08,15,16,19,25.40
2007,08,15,16,20,25.50
2007,08,15,16,21,25.60
2007,08,15,16,22,25.70
2007,08,15,16,23,25.70
2007,08,15,16,24,25.70
2007,08,15,16,25,25.70
2007,08,15,16,26,25.70
2007,08,15,16,27,25.70
2007,08,15,16,28,25.70
2007,08,15,16,29,25.70
2007,08,15,16,30,25.60
2007,08,15,16,31,25.60
2007,08,15,16,32,25.60
2007,08,15,16,33,25.60
2007,08,15,16,34,25.60
2007,08,15,16,35,25.70
2007,08,15,16,36,25.70
2007,08,15,16,37,25.80
2007,08,15,16,38,25.80
2007,08,15,16,39,25.80
2007,08,15,16,40,25.80
2007,08,15,16,41,25.80
2007,08,15,16,42,25.80
2007,08,15,16,43,25.80
2007,08,15,16,44,25.80
2007,08,15,16,45,25.90
2007,08,15,16,46,25.90
2007,08,15,16,47,25.90
2007,08,15,16,48,26.00
2007,08,15,16,49,26.20
2007,08,15,16,50,26.30
2007,08,15,16,51,26.50
2007,08,15,16,52,26.60
2007,08,15,16,53,26.60
2007,08,15,16,54,26.70
2007,08,15,16,55,26.70
2007,08,15,16,56,26.80
2007,08,15,16,57,26.80
2007,08,15,16,58,26.80
2007,08,15,16,59,26.80
2007,08,15,17,00,26.80
2007,08,15,17,01,26.80
2007,08,15,17,02,26.80
2007,08,15,17,03,26.80
2007,08,15,17,04,26.80
2007,08,15,17,05,26.80
2007,08,15,17,06,26.90
2007,08,15,17,07,26.90
2007,08,15,17,08,27.00
2007,08,15,17,09,27.10
2007,08,15,17,10,27.20
2007,08,15,17,11,27.30
2007,08,15,17,12,27.30
2007,08,15,17,13,27.40
2007,08,15,17,14,27.50
2007,08,15,17,15,27.50
2007,08,15,17,16,27.60
2007,08,15,17,17,27.60
2007,08,15,17,18,27.60
2007,08,15,17,19,27.70